TimeEDT,TemperatureF,Dew PointF,Humidity,Sea Level PressureIn,VisibilityMPH,Wind Direction,Wind SpeedMPH,Gust SpeedMPH,PrecipitationIn,Events,Conditions,WindDirDegrees,DateUTC
12:56 AM,50.0,41.0,71,30.23,10.0,North,3.5,-,N/A,,Clear,10,2013-09-06 04:56:00
1:56 AM,46.9,41.0,80,30.24,10.0,East,3.5,-,N/A,,Clear,100,2013-09-06 05:56:00
2:56 AM,46.0,41.0,83,30.25,10.0,East,3.5,-,N/A,,Clear,80,2013-09-06 06:56:00
3:56 AM,45.0,39.9,82,30.25,10.0,Calm,Calm,-,N/A,,Clear,0,2013-09-06 07:56:00
4:56 AM,43.0,39.0,86,30.26,10.0,East,4.6,-,N/A,,Clear,90,2013-09-06 08:56:00
5:56 AM,44.1,39.9,85,30.27,10.0,Calm,Calm,-,N/A,,Clear,0,2013-09-06 09:56:00
6:56 AM,41.0,37.9,89,30.28,8.0,Calm,Calm,-,N/A,,Clear,0,2013-09-06 10:56:00
7:56 AM,46.9,41.0,80,30.29,9.0,East,3.5,-,N/A,,Clear,90,2013-09-06 11:56:00
8:56 AM,51.1,42.1,71,30.30,10.0,Calm,Calm,-,N/A,,Clear,0,2013-09-06 12:56:00
9:56 AM,55.9,39.0,53,30.30,10.0,ESE,3.5,-,N/A,,Clear,120,2013-09-06 13:56:00
10:56 AM,57.9,37.0,46,30.30,10.0,Calm,Calm,-,N/A,,Clear,0,2013-09-06 14:56:00
11:56 AM,62.1,34.0,35,30.29,10.0,NW,4.6,-,N/A,,Clear,320,2013-09-06 15:56:00
12:56 PM,64.9,33.1,31,30.27,10.0,Variable,5.8,-,N/A,,Clear,0,2013-09-06 16:56:00
1:56 PM,66.0,30.0,26,30.25,10.0,Calm,Calm,-,N/A,,Clear,0,2013-09-06 17:56:00
2:56 PM,66.9,28.0,23,30.22,10.0,Variable,3.5,-,N/A,,Clear,0,2013-09-06 18:56:00
3:56 PM,70.0,25.0,18,30.21,10.0,Calm,Calm,-,N/A,,Clear,0,2013-09-06 19:56:00
4:56 PM,70.0,32.0,25,30.19,10.0,Calm,Calm,-,N/A,,Clear,0,2013-09-06 20:56:00
5:56 PM,69.1,34.0,27,30.19,10.0,Calm,Calm,-,N/A,,Clear,0,2013-09-06 21:56:00
6:56 PM,64.9,45.0,48,30.19,10.0,Calm,Calm,-,N/A,,Clear,0,2013-09-06 22:56:00
7:56 PM,57.9,46.0,65,30.18,10.0,Calm,Calm,-,N/A,,Clear,0,2013-09-06 23:56:00
8:56 PM,57.0,41.0,55,30.19,10.0,Calm,Calm,-,N/A,,Clear,0,2013-09-07 00:56:00
9:56 PM,55.0,39.9,57,30.17,10.0,Calm,Calm,-,N/A,,Clear,0,2013-09-07 01:56:00
10:56 PM,55.0,41.0,59,30.16,10.0,Calm,Calm,-,N/A,,Clear,0,2013-09-07 02:56:00
11:56 PM,55.0,43.0,64,30.15,10.0,Calm,Calm,-,N/A,,Clear,0,2013-09-07 03:56:00